Location: Innerarity Island Observatory
(30.3139°N, 87.4867°W)
Time: 11:52:17
(UTC-05:00)

Amateur Radio Satellites - All Passes

Search period start: 31 March 2015 11:22
Search period end: 01 April 2015 11:22
Location: Innerarity Island Observatory, 30.3139°N, 87.4867°W

Satellite Date Start Highest point End Downlink Frequencies (MHz)
Time Altitude Azimuth
ESTCUBE 1 31 Mar 11:28:10 11:32:04 30° 97° (E) 11:36:02 437.505/2401.250
DX 1 31 Mar 11:33:40 11:37:44 40° 286° (WNW) 11:41:45 434.975-435.025
UNISAT 6 31 Mar 11:36:02 11:39:31 24° 265° (W) 11:42:56 437.425
50 SAT 31 Mar 11:38:02 11:42:05 83° 283° (WNW) 11:46:09 437.505
TIGRISAT 31 Mar 11:45:46 11:48:50 19° 266° (W) 11:51:47 435.000
QB50P1 31 Mar 11:48:13 11:52:03 33° 262° (W) 11:55:52 145.935-145.965
DUCHIFAT 1 31 Mar 11:48:49 11:52:39 33° 262° (W) 11:56:28 145.980
TISAT 1 31 Mar 12:01:23 12:01:57 10° 91° (E) 12:02:51 437.305
QB50P2 31 Mar 12:04:30 12:07:47 21° 265° (W) 12:10:56 145.880/145.840
FUNcube-1 31 Mar 12:05:48 12:08:04 13° 289° (WNW) 12:10:06 145.935
JUGNU 31 Mar 12:06:38 12:10:34 18° 165° (SSE) 12:14:34 437.505
PHONESAT 2.4 31 Mar 12:12:01 12:14:59 24° 217° (SW) 12:17:54 2401.200-2431.200
CUBEBUG 1 31 Mar 12:15:44 12:20:04 78° 284° (WNW) 12:24:22 437.445
SPROUT 31 Mar 12:17:12 12:20:30 22° 95° (E) 12:23:56 437.525
BUGSAT 1 31 Mar 12:20:42 12:23:47 19° 265° (W) 12:26:43 437.445
VELOX 1 31 Mar 12:22:33 12:26:18 27° 287° (WNW) 12:29:59 145.980
AISAT 31 Mar 12:28:24 12:31:54 23° 288° (WNW) 12:35:19 437.250
YUBILEINY 31 Mar 12:31:20 12:37:45 24° 86° (E) 12:44:34 435.215
PCSat 31 Mar 12:55:17 12:57:53 14° 106° (ESE) 13:00:50 145.827
ESTCUBE 1 31 Mar 13:05:34 13:08:46 19° 289° (WNW) 13:11:49 437.505/2401.250
Oscar 19 31 Mar 13:10:27 13:15:13 42° 73° (ENE) 13:20:02 437.125/150
O/OREOS (USA 219) 31 Mar 13:10:44 13:13:40 17° 62° (ENE) 13:16:46 437.305
SRMSAT 31 Mar 13:10:44 13:13:50 15° 163° (SSE) 13:17:02 437.500
TISAT 1 31 Mar 13:34:02 13:38:02 44° 285° (WNW) 13:42:01 437.305
Gurwin Techsat 1B 31 Mar 13:44:20 13:48:13 22° 70° (ENE) 13:52:16 435.225
SWISSCUBE 31 Mar 13:44:41 13:48:50 29° 97° (E) 13:53:00 437.505
BEESAT 31 Mar 13:47:16 13:51:22 29° 97° (E) 13:55:32 436.000
SPROUT 31 Mar 13:53:10 13:56:32 22° 288° (WNW) 13:59:47 437.525
JUGNU 31 Mar 13:54:04 13:59:06 28° 174° (S) 14:04:10 437.505
ITAMSAT 1 31 Mar 14:20:25 14:25:36 66° 75° (ENE) 14:30:47 435.822/435.867
YUBILEINY 31 Mar 14:25:28 14:34:05 57° 280° (W) 14:42:43 435.215
AIST 1 31 Mar 14:29:15 14:31:32 15° 74° (ENE) 14:34:01
ITUPSAT 1 31 Mar 14:35:03 14:39:52 80° 283° (WNW) 14:44:37 437.325
PCSat 31 Mar 14:35:37 14:40:55 55° 297° (WNW) 14:46:14 145.827
AO-7 31 Mar 14:41:37 14:47:16 22° 62° (ENE) 14:53:15 29.400- 29.500
O/OREOS (USA 219) 31 Mar 14:49:10 14:53:13 32° 256° (WSW) 14:57:10 437.305
Oscar 19 31 Mar 14:51:27 14:54:48 17° 267° (W) 14:57:53 437.125/150
KKS-1 31 Mar 14:56:14 15:00:00 27° 97° (E) 15:03:51 437.445
SRMSAT 31 Mar 14:57:40 15:02:31 26° 171° (S) 15:07:22 437.500
STARS 31 Mar 15:22:39 15:26:39 34° 98° (E) 15:30:42 437.465
SWISSCUBE 31 Mar 15:22:54 15:26:32 21° 289° (WNW) 15:30:01 437.505
Gurwin Techsat 1B 31 Mar 15:23:08 15:28:00 36° 262° (W) 15:32:50 435.225
BEESAT 31 Mar 15:25:24 15:29:05 22° 289° (WNW) 15:32:37 436.000
JUGNU 31 Mar 15:42:35 15:47:41 29° 184° (S) 15:52:47 437.505
JAS-2 31 Mar 15:47:56 15:54:17 45° 71° (ENE) 16:01:23 435.910
HORYU 2 31 Mar 16:01:45 16:06:06 57° 260° (W) 16:10:29 437.375
ITAMSAT 1 31 Mar 16:04:32 16:05:37 10° 270° (W) 16:06:15 435.822/435.867
AIST 1 31 Mar 16:05:32 16:09:20 30° 268° (W) 16:13:02
AO-7 31 Mar 16:31:09 16:39:26 70° 256° (WSW) 16:47:43 29.400- 29.500
KKS-1 31 Mar 16:33:14 16:36:30 20° 289° (WNW) 16:39:38 437.445
SRMSAT 31 Mar 16:46:06 16:51:15 30° 181° (S) 16:56:22 437.500
MOZHAYETS 4 31 Mar 16:47:54 16:51:42 26° 95° (E) 16:55:35
STARS 31 Mar 17:00:10 17:02:52 16° 290° (WNW) 17:05:25 437.465
CUTE-I 31 Mar 17:03:20 17:04:12 11° 66° (ENE) 17:05:29 437.470
Cubesat XI-IV 31 Mar 17:03:51 17:05:06 11° 66° (ENE) 17:06:44 437.490
M-CUBED/EXP-1 PRIME 31 Mar 17:08:30 17:10:15 12° 94° (E) 17:12:17 437.505
SO-50 31 Mar 17:25:34 17:29:19 26° 111° (ESE) 17:33:15 436.795
RS-15 31 Mar 17:27:50 17:36:49 32° 107° (ESE) 17:46:11 29.354- 29.394
JUGNU 31 Mar 17:32:00 17:36:14 20° 194° (SSW) 17:40:24 437.505
JAS-2 31 Mar 17:33:49 17:39:33 28° 268° (W) 17:45:36 435.910
BEESAT 3 31 Mar 18:10:45 18:12:30 13° 51° (NE) 18:14:26 437.485
AUBIESAT-1 31 Mar 18:14:08 18:18:55 66° 105° (ESE) 18:23:28 437.475
MOZHAYETS 4 31 Mar 18:25:09 18:28:50 23° 288° (WNW) 18:32:22
PRISM 31 Mar 18:29:53 18:32:13 15° 93° (E) 18:34:45 437.425
SRMSAT 31 Mar 18:35:20 18:39:57 23° 191° (S) 18:44:32 437.500
CUTE-I 31 Mar 18:38:24 18:43:45 76° 257° (WSW) 18:49:08 437.470
Cubesat XI-IV 31 Mar 18:39:19 18:44:41 73° 258° (WSW) 18:50:04 437.490
M-CUBED/EXP-1 PRIME 31 Mar 18:40:47 18:45:30 53° 290° (WNW) 18:50:01 437.505
CUBESAT XI-V 31 Mar 18:41:31 18:45:35 31° 97° (E) 18:49:42 437.345
GONETS M04 31 Mar 18:43:56 18:51:45 41° 89° (E) 18:59:47
STRAND 1 31 Mar 18:50:09 18:53:45 20° 94° (E) 18:57:32 437.568
AIST 2 31 Mar 19:02:30 19:04:35 14° 51° (NE) 19:06:48 435.215
SO-50 31 Mar 19:05:58 19:09:48 25° 306° (NW) 19:13:40 436.795
BEESAT 2 31 Mar 19:12:43 19:16:45 53° 61° (ENE) 19:20:43 435.950
HO-68 31 Mar 19:36:59 19:41:58 22° 65° (ENE) 19:47:16 435.675
RS-15 31 Mar 19:38:03 19:48:43 56° 303° (WNW) 19:59:27 29.354- 29.394
BEESAT 3 31 Mar 19:46:56 19:50:51 43° 246° (WSW) 19:54:39 437.485
AUBIESAT-1 31 Mar 19:51:43 19:53:11 11° 297° (WNW) 19:54:20 437.475
CANX-2 31 Mar 19:51:55 19:53:45 13° 70° (ENE) 19:55:49 2200.000
PRISM 31 Mar 20:04:08 20:07:49 30° 287° (WNW) 20:11:23 437.425
CUTE 1.7 + AOD 2 31 Mar 20:04:37 20:07:15 17° 72° (ENE) 20:10:05 437.475
ISS 31 Mar 20:17:06 20:18:57 15° 127° (SE) 20:20:56 145.825
CUBESAT XI-V 31 Mar 20:19:36 20:22:50 18° 289° (WNW) 20:25:54 437.345
AAUSAT CUBESAT 2 31 Mar 20:19:56 20:22:04 14° 71° (ENE) 20:24:25 437.432
SRMSAT 31 Mar 20:26:33 20:28:36 12° 199° (SSW) 20:30:31 437.500
STRAND 1 31 Mar 20:28:26 20:33:03 35° 288° (WNW) 20:37:36 437.568
SEEDS 31 Mar 20:29:07 20:32:39 27° 73° (ENE) 20:36:17 437.485
DANDE 31 Mar 20:32:18 20:35:09 28° 98° (E) 20:37:38 436.750
BRITE-PL 31 Mar 20:36:25 20:41:14 89° 257° (WSW) 20:45:41 437.365/2234.400
AIST 2 31 Mar 20:39:26 20:43:27 43° 246° (WSW) 20:47:22 435.215
GONETS M04 31 Mar 20:40:56 20:48:42 34° 285° (WNW) 20:56:18
DOVE 4 31 Mar 20:47:15 20:51:25 45° 76° (ENE) 20:55:28 437.250
COMPASS 1 31 Mar 20:47:20 20:51:10 37° 75° (ENE) 20:55:04 437.405
Oscar 11 31 Mar 21:03:08 21:06:25 22° 72° (ENE) 21:09:49 145.826/435.025
CUSAT 1 31 Mar 21:10:01 21:12:41 30° 279° (W) 21:15:04 437.405
GOMX 1 31 Mar 21:10:27 21:14:56 55° 260° (W) 21:19:11 467.674
DELFI C3 31 Mar 21:17:48 21:21:01 24° 73° (ENE) 21:24:21 145.870
FUNcube-1 31 Mar 21:19:47 21:22:10 16° 71° (ENE) 21:24:45 145.935
HO-68 31 Mar 21:22:13 21:29:15 59° 258° (WSW) 21:36:19 435.675
CANX-2 31 Mar 21:25:26 21:29:24 38° 262° (W) 21:33:22 2200.000
UWE-3 31 Mar 21:29:46 21:33:14 27° 74° (ENE) 21:36:47 435.000/436.395/437.385
ZACube-1 31 Mar 21:32:46 21:36:01 23° 73° (ENE) 21:39:21 437.345
CUTE 1.7 + AOD 2 31 Mar 21:39:17 21:43:00 29° 264° (W) 21:46:40 437.475
CUBEBUG 2 31 Mar 21:39:45 21:43:43 46° 76° (ENE) 21:47:42 437.445
CINEMA 3 31 Mar 21:44:57 21:49:10 70° 260° (W) 21:53:19 145.822/145.860
AISAT 31 Mar 21:46:49 21:47:52 11° 69° (ENE) 21:49:12 437.250
ISS 31 Mar 21:52:12 21:55:10 31° 319° (NW) 21:58:08 145.825
AAUSAT CUBESAT 2 31 Mar 21:53:40 21:57:27 33° 263° (W) 22:01:14 437.432
RS-15 31 Mar 21:59:24 22:04:31 13° 331° (NNW) 22:09:02 29.354- 29.394
HUMSAT D 31 Mar 22:02:53 22:06:13 25° 73° (ENE) 22:09:38 437.325/437.525
SEEDS 31 Mar 22:05:39 22:08:31 17° 267° (W) 22:11:13 437.485
UKube-1 31 Mar 22:09:34 22:13:46 50° 75° (ENE) 22:17:59 .
50 SAT 31 Mar 22:19:07 22:22:15 24° 73° (ENE) 22:25:29 437.505
DX 1 31 Mar 22:23:08 22:27:30 82° 77° (ENE) 22:31:51 434.975-435.025
ESTCUBE 1 31 Mar 22:23:41 22:26:07 15° 70° (ENE) 22:28:46 437.505/2401.250
COMPASS 1 31 Mar 22:25:12 22:27:04 12° 268° (W) 22:28:42 437.405
DOVE 4 31 Mar 22:28:57 22:29:28 10° 268° (W) 22:29:39 437.250
ANTELSAT 31 Mar 22:37:17 22:40:55 23° 95° (E) 22:44:42 437.575/2403.000
Oscar 11 31 Mar 22:39:04 22:42:32 23° 265° (W) 22:45:53 145.826/435.025
POPSAT HIP 1 31 Mar 22:48:53 22:50:42 13° 92° (E) 22:52:45 437.405
DELFI C3 31 Mar 22:53:14 22:56:10 19° 266° (W) 22:58:59 145.870
FUNcube-1 31 Mar 22:54:41 22:58:19 29° 263° (W) 23:01:56 145.935
NANOSAT C BR1 31 Mar 22:57:37 23:00:17 17° 94° (E) 23:03:07 145.865
POLYITAN 1 31 Mar 23:03:52 23:07:02 21° 95° (E) 23:10:21 437.675
CUBEBUG 1 31 Mar 23:06:16 23:10:23 41° 75° (ENE) 23:14:32 437.445
UWE-3 31 Mar 23:07:07 23:09:51 16° 266° (W) 23:12:24 435.000/436.395/437.385
ZACube-1 31 Mar 23:09:19 23:12:22 19° 266° (W) 23:15:18 437.345
VELOX 1 31 Mar 23:13:48 23:18:12 63° 259° (W) 23:22:37 145.980
AISAT 31 Mar 23:19:46 23:24:06 51° 260° (W) 23:28:25 437.250
PCSat 31 Mar 23:29:27 23:34:22 35° 59° (ENE) 23:39:18 145.827
UNISAT 6 31 Mar 23:32:23 23:37:02 78° 281° (WNW) 23:41:44 437.425
QB50P1 31 Mar 23:38:40 23:42:50 58° 100° (E) 23:47:02 145.935-145.965
DUCHIFAT 1 31 Mar 23:38:57 23:43:06 57° 100° (E) 23:47:16 145.980
HUMSAT D 31 Mar 23:39:11 23:42:01 17° 266° (W) 23:44:42 437.325/437.525
TIGRISAT 31 Mar 23:41:25 23:45:59 62° 283° (WNW) 23:50:36 435.000
QB50P2 31 Mar 23:54:24 23:58:40 84° 283° (WNW) 00:02:55 145.880/145.840
50 SAT 31 Mar 23:54:37 23:57:11 16° 266° (W) 23:59:36 437.505
ESTCUBE 1 31 Mar 23:58:26 00:02:42 39° 262° (W) 00:06:58 437.505/2401.250
BUGSAT 1 01 Apr 00:07:25 00:11:27 86° 283° (WNW) 00:15:30 437.445
ANTELSAT 01 Apr 00:13:46 00:17:39 26° 287° (WNW) 00:21:29 437.575/2403.000
TISAT 1 01 Apr 00:20:19 00:24:28 61° 76° (ENE) 00:28:38 437.305
POPSAT HIP 1 01 Apr 00:22:51 00:26:46 37° 286° (WNW) 00:30:39 437.405
NANOSAT C BR1 01 Apr 00:32:32 00:36:11 28° 287° (WNW) 00:39:47 145.865
POLYITAN 1 01 Apr 00:39:30 00:42:55 23° 287° (WNW) 00:46:15 437.675
SPROUT 01 Apr 00:40:41 00:44:55 59° 259° (W) 00:49:09 437.525
YUBILEINY 01 Apr 00:42:44 00:51:20 57° 80° (E) 00:59:54 435.215
CUBEBUG 1 01 Apr 00:44:56 00:46:59 13° 268° (W) 00:48:45 437.445
SWISSCUBE 01 Apr 00:46:34 00:49:48 19° 70° (ENE) 00:53:13 437.505
BEESAT 01 Apr 00:49:07 00:52:16 18° 70° (ENE) 00:55:36 436.000
PCSat 01 Apr 01:13:19 01:17:37 23° 253° (WSW) 01:21:45 145.827
Oscar 19 01 Apr 01:28:15 01:32:20 24° 95° (E) 01:36:34 437.125/150
ITUPSAT 1 01 Apr 01:36:03 01:40:46 61° 76° (ENE) 01:45:33 437.325
KKS-1 01 Apr 01:50:42 01:52:39 13° 70° (ENE) 01:54:49 437.445
Gurwin Techsat 1B 01 Apr 02:07:19 02:09:35 13° 91° (E) 02:12:14 435.225
STARS 01 Apr 02:15:28 02:18:00 16° 70° (ENE) 02:20:42 437.465
VERMONT LUNAR 01 Apr 02:16:29 02:18:13 14° 141° (SE) 02:20:04 437.305
SWISSCUBE 01 Apr 02:23:04 02:27:27 34° 262° (W) 02:31:48 437.505
BEESAT 01 Apr 02:25:30 02:29:54 35° 262° (W) 02:34:16 436.000
RS-15 01 Apr 02:34:39 02:43:25 25° 43° (NE) 02:52:55 29.354- 29.394
ITAMSAT 1 01 Apr 02:39:26 02:44:12 38° 98° (E) 02:49:00 435.822/435.867
YUBILEINY 01 Apr 02:40:54 02:47:40 24° 274° (W) 02:54:00 435.215
AIST 1 01 Apr 02:53:58 02:55:22 12° 88° (E) 02:57:03
Oscar 19 01 Apr 03:07:11 03:11:42 30° 288° (WNW) 03:16:08 437.125/150
O/OREOS (USA 219) 01 Apr 03:15:47 03:20:16 57° 106° (ESE) 03:24:47 437.305
PHONESAT 2.4 01 Apr 03:19:54 03:22:28 19° 142° (SE) 03:25:05 2401.200-2431.200
KKS-1 01 Apr 03:24:46 03:28:58 42° 261° (W) 03:33:11 437.445
SO-50 01 Apr 03:41:50 03:46:46 64° 61° (ENE) 03:51:36 436.795
Gurwin Techsat 1B 01 Apr 03:44:47 03:49:59 55° 285° (WNW) 03:55:08 435.225
MOZHAYETS 4 01 Apr 03:46:00 03:48:00 13° 69° (ENE) 03:50:16
STARS 01 Apr 03:50:14 03:54:13 34° 262° (W) 03:58:11 437.465
VERMONT LUNAR 01 Apr 03:52:19 03:55:39 71° 331° (NNW) 03:58:59 437.305
HORYU 2 01 Apr 03:58:50 04:03:07 42° 99° (E) 04:07:24 437.375
ITAMSAT 1 01 Apr 04:19:45 04:23:28 20° 291° (WNW) 04:27:01 435.822/435.867
ISS 01 Apr 04:24:36 04:26:41 16° 36° (NE) 04:28:50 145.825
AIST 1 01 Apr 04:28:33 04:32:42 40° 280° (W) 04:36:51
AO-7 01 Apr 04:39:14 04:47:23 59° 103° (ESE) 04:55:34 29.400- 29.500
RS-15 01 Apr 04:45:44 04:57:26 85° 244° (WSW) 05:09:36 29.354- 29.394
JAS-2 01 Apr 04:48:50 04:56:20 66° 100° (E) 05:03:02 435.910
PHONESAT 2.4 01 Apr 04:57:08 05:00:36 57° 333° (NNW) 05:04:05 2401.200-2431.200
AUBIESAT-1 01 Apr 04:57:14 05:00:46 31° 68° (ENE) 05:04:38 437.475
O/OREOS (USA 219) 01 Apr 04:58:52 05:00:09 11° 302° (WNW) 05:01:08 437.305
GONETS M04 01 Apr 05:03:41 05:07:31 14° 66° (ENE) 05:12:06
MOZHAYETS 4 01 Apr 05:20:27 05:24:53 46° 261° (W) 05:29:20
M-CUBED/EXP-1 PRIME 01 Apr 05:23:48 05:27:44 81° 73° (ENE) 05:32:04 437.505
SO-50 01 Apr 05:25:36 05:26:52 11° 252° (WSW) 05:27:46 436.795
VERMONT LUNAR 01 Apr 05:31:15 05:33:42 19° 347° (NNW) 05:36:09 437.305
HORYU 2 01 Apr 05:37:07 05:39:27 14° 290° (WNW) 05:41:33 437.375
CUBESAT XI-V 01 Apr 05:40:19 05:43:17 17° 71° (ENE) 05:46:25 437.345
ISS 01 Apr 06:00:13 06:03:11 33° 230° (SW) 06:06:06 145.825
STRAND 1 01 Apr 06:01:10 06:04:17 17° 69° (ENE) 06:07:39 437.568
AO-7 01 Apr 06:33:11 06:39:44 26° 297° (WNW) 06:45:59 29.400- 29.500
AUBIESAT-1 01 Apr 06:33:18 06:35:46 15° 264° (W) 06:38:10 437.475
JAS-2 01 Apr 06:35:24 06:40:38 20° 296° (WNW) 06:45:16 435.910
PHONESAT 2.4 01 Apr 06:36:51 06:39:24 18° 349° (N) 06:41:57 2401.200-2431.200
PRISM 01 Apr 06:48:00 06:52:12 88° 79° (ENE) 06:56:27 437.425
GONETS M04 01 Apr 06:56:50 07:05:43 89° 278° (W) 07:14:35
CUTE-I 01 Apr 07:01:27 07:06:46 72° 102° (ESE) 07:12:03 437.470
RS-15 01 Apr 07:02:07 07:08:54 16° 256° (WSW) 07:14:39 29.354- 29.394
Cubesat XI-IV 01 Apr 07:02:33 07:07:53 75° 101° (ESE) 07:13:11 437.490
VERMONT LUNAR 01 Apr 07:10:15 07:12:11 14° 4° (N) 07:14:08 437.305
DANDE 01 Apr 07:15:12 07:19:04 24° 80° (E) 07:24:02 436.750
CUBESAT XI-V 01 Apr 07:16:08 07:20:29 36° 263° (W) 07:24:47 437.345
STRAND 1 01 Apr 07:38:17 07:43:11 44° 261° (W) 07:48:05 437.568
CUSAT 1 01 Apr 07:48:47 07:53:50 74° 82° (E) 08:00:34 437.405
PHONESAT 2.4 01 Apr 08:16:15 08:18:34 16° 6° (N) 08:20:55 2401.200-2431.200
CUTE-I 01 Apr 08:44:46 08:46:20 11° 294° (WNW) 08:47:30 437.470
Cubesat XI-IV 01 Apr 08:46:16 08:47:27 10° 294° (WNW) 08:48:15 437.490
BRITE-PL 01 Apr 08:46:31 08:50:37 42° 99° (E) 08:55:01 437.365/2234.400
VERMONT LUNAR 01 Apr 08:47:33 08:50:32 29° 21° (NNE) 08:53:32 437.305
DOVE 4 01 Apr 08:52:02 08:55:19 20° 95° (E) 08:58:52 437.250
HO-68 01 Apr 08:56:26 09:02:59 38° 98° (E) 09:09:36 435.675
GONETS M04 01 Apr 08:57:44 09:01:38 13° 278° (W) 09:04:43
DANDE 01 Apr 08:57:54 09:02:16 30° 263° (W) 09:07:41 436.750
BEESAT 2 01 Apr 09:01:29 09:05:19 41° 113° (ESE) 09:09:14 435.950
CANX-2 01 Apr 09:16:14 09:20:28 54° 100° (E) 09:24:41 2200.000
GOMX 1 01 Apr 09:17:11 09:21:34 63° 101° (E) 09:26:14 467.674
CUTE 1.7 + AOD 2 01 Apr 09:29:37 09:33:56 73° 100° (E) 09:38:14 437.475
BEESAT 3 01 Apr 09:34:35 09:38:36 59° 299° (WNW) 09:42:40 437.485
CUSAT 1 01 Apr 09:35:20 09:36:48 11° 265° (W) 09:37:47 437.405
CUBEBUG 2 01 Apr 09:37:12 09:40:03 17° 94° (E) 09:43:09 437.445
AAUSAT CUBESAT 2 01 Apr 09:42:06 09:46:16 56° 100° (E) 09:50:24 437.432
CINEMA 3 01 Apr 09:44:59 09:49:18 42° 99° (E) 09:53:49 145.822/145.860
PHONESAT 2.4 01 Apr 09:54:11 09:57:30 38° 23° (NNE) 10:00:51 2401.200-2431.200
SEEDS 01 Apr 09:54:12 09:58:28 66° 283° (WNW) 10:02:41 437.485
UKube-1 01 Apr 10:04:39 10:06:40 13° 93° (E) 10:08:57 .
COMPASS 1 01 Apr 10:11:55 10:16:02 48° 284° (WNW) 10:20:06 437.405
DX 1 01 Apr 10:18:03 10:21:20 22° 96° (E) 10:24:44 434.975-435.025
VERMONT LUNAR 01 Apr 10:25:05 10:28:16 41° 214° (SW) 10:31:27 437.305
UNISAT 6 01 Apr 10:26:07 10:30:08 44° 75° (ENE) 10:34:16 437.425
QB50P1 01 Apr 10:26:46 10:29:53 21° 72° (ENE) 10:33:06 145.935-145.965
DUCHIFAT 1 01 Apr 10:26:47 10:29:50 20° 72° (ENE) 10:33:00 145.980
BRITE-PL 01 Apr 10:27:01 10:28:58 12° 288° (WNW) 10:30:41 437.365/2234.400
DOVE 4 01 Apr 10:29:14 10:33:05 28° 286° (WNW) 10:37:02 437.250
Oscar 11 01 Apr 10:31:04 10:35:27 82° 280° (W) 10:39:47 145.826/435.025
AIST 2 01 Apr 10:31:43 10:35:50 51° 300° (WNW) 10:40:01 435.215
TIGRISAT 01 Apr 10:34:43 10:38:51 55° 76° (ENE) 10:43:04 435.000
DELFI C3 01 Apr 10:37:18 10:41:25 88° 283° (WNW) 10:45:29 145.870
BEESAT 2 01 Apr 10:41:29 10:43:42 14° 309° (NW) 10:45:46 435.950
QB50P2 01 Apr 10:42:02 10:45:49 33° 74° (ENE) 10:49:37 145.880/145.840
HO-68 01 Apr 10:44:18 10:50:36 33° 292° (WNW) 10:56:44 435.675
FUNcube-1 01 Apr 10:47:48 10:52:16 77° 102° (ESE) 10:56:47 145.935
BUGSAT 1 01 Apr 10:52:15 10:55:51 29° 74° (ENE) 10:59:27 437.445
UWE-3 01 Apr 11:00:37 11:05:02 57° 284° (WNW) 11:09:33 435.000/436.395/437.385
ZACube-1 01 Apr 11:01:58 11:06:24 70° 283° (WNW) 11:10:55 437.345
CUBEBUG 1 01 Apr 11:03:05 11:04:32 12° 92° (E) 11:06:15 437.445
ANTELSAT 01 Apr 11:06:43 11:10:53 54° 260° (W) 11:15:07 437.575/2403.000
POPSAT HIP 1 01 Apr 11:09:35 11:13:47 75° 78° (ENE) 11:18:00 437.405
VELOX 1 01 Apr 11:10:21 11:14:25 37° 98° (E) 11:18:31 145.980
CUBEBUG 2 01 Apr 11:12:44 11:16:50 34° 286° (WNW) 11:20:58 437.445
